Flag for Germany Weather past 2 weeks in Emsdetten, North Rhine-Westphalia, Germany

Now
46 °F

Broken clouds.


Feels Like: 39 °F
Forecast: 36 / 51 °F
Wind: 21 mph from West

Location: Muenster / Osnabrueck

Current Time: Mar 27, 2015 at 11:17:39 AM

Latest Report: Mar 27, 2015 at 10:20 AM


Visibility: N/A

Pressure: 29.89 "Hg

Humidity: 76%

Dew point: 39 °F

Location of EmsdettenLocation

Historic Weather in Emsdetten — Graph

°F

Emsdetten temperature yesterday

Maximum temperature yesterday: 46 °F (at 12:50 PM)
Minimum temperature yesterday: 39 °F (at 2:50 AM)
Average temperature yesterday: 42 °F

Past Weeks' High & Low Weather Summary

 TemperatureHumidityPressure
High63 °F (Mar 17, 2:20 PM)100% (Mar 17, 4:50 AM)30.48 "Hg (Mar 17, 4:50 AM)
Low28 °F (Mar 23, 4:20 AM)42% (Mar 17, 2:50 PM)29.65 "Hg (Mar 25, 4:20 AM)
Average42 °F81%30.14 "Hg
* Reported Mar 12 10:20 AM — Mar 27 10:20 AM, Emsdetten, Weather by CustomWeather, © 2015

Note: Actual official high and low records may vary slightly from our data, if they occured in-between our weather recording intervals... More about our weather records

Advertising

Emsdetten weather history for previous 24 hours

 ConditionsComfort  
Time TempWeatherWind HumidityBarometerVisibility
10:20 AM
Fri, Mar 27
46 °FBroken clouds.21 mph76%29.89 "HgN/A
9:50 AM45 °FBroken clouds.15 mph81%29.89 "HgN/A
9:20 AM45 °FBroken clouds.21 mph81%29.89 "HgN/A
8:50 AM43 °FBroken clouds.17 mph87%29.86 "HgN/A
8:20 AM43 °FBroken clouds.15 mph87%29.86 "HgN/A
7:50 AM43 °FSprinkles. Broken clouds.14 mph87%29.86 "HgN/A
7:20 AM43 °FLight rain. Partly sunny.13 mph87%29.83 "HgN/A
6:50 AM43 °FLight rain. Broken clouds.13 mph87%29.83 "HgN/A
6:20 AM43 °FPartly sunny.13 mph87%29.80 "HgN/A
5:50 AM43 °FLight rain. Passing clouds.13 mph87%29.80 "HgN/A
5:20 AM43 °FPassing clouds.14 mph87%29.80 "HgN/A
4:50 AM43 °FPartly cloudy.15 mph87%29.80 "HgN/A
4:20 AM45 °FPassing clouds.12 mph81%29.77 "HgN/A
3:50 AM45 °FPassing clouds.9 mph87%29.77 "HgN/A
3:20 AM45 °FLight rain. Passing clouds.9 mph87%29.77 "HgN/A
2:50 AM45 °FPassing clouds.14 mph87%29.77 "HgN/A
2:20 AM45 °FPartly cloudy.12 mph87%29.74 "HgN/A
1:50 AM45 °FPassing clouds.12 mph87%29.74 "HgN/A
1:20 AM43 °FPassing clouds.8 mph93%29.74 "HgN/A
12:50 AM43 °FPassing clouds.8 mph93%29.74 "HgN/A
12:20 AM43 °FPartly cloudy.8 mph93%29.74 "HgN/A
11:50 PM
Thu, Mar 26
41 °FPartly cloudy.8 mph100%29.71 "HgN/A
11:20 PM41 °FPartly cloudy.9 mph93%29.71 "HgN/A
10:50 PM41 °FLight rain. Passing clouds.10 mph93%29.71 "HgN/A
10:20 PM41 °FLight rain. Passing clouds.10 mph93%29.71 "HgN/A
9:50 PM41 °FLight rain. Passing clouds.12 mph87%29.71 "HgN/A
9:20 PM41 °FLight rain. Passing clouds.12 mph87%29.71 "HgN/A
8:50 PM41 °FLight rain. Passing clouds.10 mph87%29.71 "HgN/A
8:20 PM41 °FLight rain. Passing clouds.8 mph87%29.71 "HgN/A
7:50 PM41 °FLight rain. Passing clouds.6 mph87%29.71 "HgN/A
7:20 PM41 °FPassing clouds.6 mph87%29.71 "HgN/A
6:50 PM41 °FLight rain. Partly sunny.6 mph87%29.71 "HgN/A
6:20 PM41 °FLight rain. Partly sunny.9 mph87%29.74 "HgN/A
5:50 PM43 °FLight rain. Broken clouds.9 mph76%29.71 "HgN/A
5:20 PM43 °FLight rain. Partly sunny.8 mph76%29.71 "HgN/A
4:50 PM43 °FLight rain. Broken clouds.9 mph76%29.71 "HgN/A
4:20 PM45 °FLight rain. Partly sunny.13 mph61%29.71 "HgN/A
3:50 PM46 °FBroken clouds.9 mph53%29.71 "HgN/A
3:20 PM46 °FBroken clouds.10 mph53%29.71 "HgN/A
2:50 PM46 °FBroken clouds.8 mph53%29.71 "HgN/A
2:20 PM46 °FBroken clouds.9 mph57%29.71 "HgN/A
1:50 PM46 °FBroken clouds.10 mph57%29.71 "HgN/A
1:20 PM46 °FBroken clouds.9 mph57%29.74 "HgN/A
12:50 PM46 °FBroken clouds.10 mph57%29.74 "HgN/A
12:20 PM45 °FBroken clouds.8 mph61%29.74 "HgN/A
11:50 AM45 °FBroken clouds.9 mph66%29.74 "HgN/A
11:20 AM43 °FBroken clouds.8 mph66%29.77 "HgN/A
Weather by CustomWeather, © 2015

See weather overviewHow to use our weather pages